Regional Weather Roundup
Issued by NWS

Home | Current Version | Previous Version | Graphics & Text | Print | Product List | Glossary Off
Versions: 1 2 3 4 5 6 7 8 9 10 11 12 13 14 15 16 17 18 19 20 21 22 23 24 25 26 27 28 29 30 31 32 33 34 35 36 37 38 39 40 41 42 43 44 45 46 47 48 49 50

000
ASUS43 KTOP 240059
RWRKS

WEATHER ROUNDUP FOR KANSAS
NATIONAL WEATHER SERVICE GOODLAND KS
800 PM CDT WED APR 23 2014

NOTE:  "FAIR" INDICATES FEW OR NO CLOUDS BELOW 12,000 FEET WITH NO
SIGNIFICANT WEATHER AND/OR OBSTRUCTIONS TO VISIBILITY.

KSZ001>006-013>018-027>032-041>047-240200-
NORTHWEST KANSAS

CITY           SKY/WX    TMP DP  RH WIND       PRES   REMARKS
GOODLAND       MOCLDY    69  33  26 N31G43    29.53R
HAYS           MOCLDY   N/A N/A N/A S37G44    29.43F
HILL CITY      TSTM      65  49  56 NW23G35   29.48R
RUSSELL        CLOUDY    79  51  37 S32G46    29.44F
$$

KSZ061>065-074>080-084>089-240200-
SOUTHWEST KANSAS

CITY           SKY/WX    TMP DP  RH WIND       PRES   REMARKS
DODGE CITY     CLOUDY    74  55  51 S29G39    29.50F
ELKHART          N/A     82  22  11 SW17        N/A
GARDEN CITY    PTCLDY    73  53  49 S24G33    29.47F
GREAT BEND     CLOUDY    79  52  38 S39G54    29.44F
LIBERAL        PTCLDY    75  54  46 SE21G32   29.50F
$$

KSZ066>073-081>083-090>101-240200-
SOUTHEAST KANSAS

CITY           SKY/WX    TMP DP  RH WIND       PRES   REMARKS
CHANUTE        PTCLDY    75  51  43 SE18      29.70F
COFFEYVILLE    PTCLDY    76  55  48 SE12      29.71F
HUTCHINSON     CLOUDY    79  46  31 S22G35    29.55F
MEDICINE LODGE   N/A     78  52  40 S21G36    29.55F
NEWTON         CLOUDY    79  43  27 S22G33    29.62F
PARSONS        PTCLDY    77  53  43 SE9       29.72F
WICHITA INTL   CLOUDY    80  46  30 S24G39    29.58F
WICHITA JABRA  CLOUDY    79  48  33 S20G31    29.59S
WINFIELD       LGT RAIN  79  52  38 S25G39    29.63F
$$

KSZ007>012-019>026-033>040-048>060-102>105-240200-
NORTHEAST KANSAS

CITY           SKY/WX    TMP DP  RH WIND       PRES   REMARKS
CONCORDIA      CLEAR     78  46  32 S25G35    29.48F
EMPORIA        CLOUDY    75  51  43 SE23G39   29.61F
LAWRENCE       PTCLDY    73  47  39 SE21      29.65F
MANHATTAN      CLOUDY    80  47  31 S21G29    29.55S
OLATHE IND     PTCLDY    71  46  40 SE21      29.69F
OLATHE EXE     PTCLDY    71  43  36 SE18G26   29.69F
SALINA         CLOUDY    80  44  27 S25G35    29.51F
TOPEKA BILLARD PTCLDY    78  46  32 SE16      29.62F
TOPEKA FORBES  MOCLDY    77  44  30 S23G29    29.61F
$$



USA.gov is the U.S. government's official web portal to all federal, state and local government web resources and services.